Time,TemperatureF,DewpointF,PressureIn,WindDirection,WindDirectionDegrees,WindSpeedMPH,WindSpeedGustMPH,Humidity,HourlyPrecipIn,Conditions,Clouds,dailyrainin,SoftwareType,DateUTC
2013-01-20 00:00:00,45.0,24.4,29.65,WSW,248,7.0,17.0,44,0.00,,---,0.00,VWS V14.01,2013-01-20 05:00:00,
2013-01-20 00:03:00,45.0,25.0,29.65,SSW,202,6.0,27.0,45,0.00,,---,0.00,VWS V14.01,2013-01-20 05:03:00,
2013-01-20 00:04:00,45.0,25.0,29.65,West,270,20.0,27.0,45,0.00,,---,0.00,VWS V14.01,2013-01-20 05:04:00,
2013-01-20 00:10:00,45.0,25.0,29.64,SW,225,13.0,27.0,45,0.00,,---,0.00,VWS V14.01,2013-01-20 05:10:00,
2013-01-20 00:15:00,45.0,25.0,29.64,WSW,248,23.0,27.0,45,0.00,,---,0.00,VWS V14.01,2013-01-20 05:15:00,
2013-01-20 00:20:00,45.0,25.5,29.64,West,270,18.0,22.0,46,0.00,,---,0.00,VWS V14.01,2013-01-20 05:20:00,
2013-01-20 00:25:00,45.0,25.5,29.63,West,270,11.0,26.0,46,0.00,,---,0.00,VWS V14.01,2013-01-20 05:25:00,
2013-01-20 00:30:00,45.0,25.5,29.63,SW,225,14.0,34.0,46,0.00,,---,0.00,VWS V14.01,2013-01-20 05:30:00,
2013-01-20 00:35:00,44.0,24.6,29.62,WSW,248,11.0,34.0,46,0.00,,---,0.00,VWS V14.01,2013-01-20 05:35:00,
2013-01-20 00:40:00,44.0,25.1,29.62,SW,225,17.0,22.0,47,0.00,,---,0.00,VWS V14.01,2013-01-20 05:40:00,
2013-01-20 00:45:00,44.0,25.1,29.62,SW,225,11.0,22.0,47,0.00,,---,0.00,VWS V14.01,2013-01-20 05:45:00,
2013-01-20 00:50:00,44.0,25.1,29.62,SW,225,26.0,31.0,47,0.00,,---,0.00,VWS V14.01,2013-01-20 05:50:00,
2013-01-20 00:55:00,44.0,25.1,29.61,WSW,248,7.0,31.0,47,0.00,,---,0.00,VWS V14.01,2013-01-20 05:55:00,
2013-01-20 01:00:00,44.0,25.6,29.62,SW,225,11.0,17.0,48,0.00,,---,0.00,VWS V14.01,2013-01-20 06:00:00,
2013-01-20 01:06:00,44.0,25.6,29.61,WSW,248,17.0,24.0,48,0.00,,---,0.00,VWS V14.01,2013-01-20 06:06:00,
2013-01-20 01:11:00,44.0,25.6,29.61,SW,225,21.0,24.0,48,0.00,,---,0.00,VWS V14.01,2013-01-20 06:11:00,
2013-01-20 01:16:00,44.0,25.6,29.61,WSW,248,20.0,27.0,48,0.00,,---,0.00,VWS V14.01,2013-01-20 06:16:00,
2013-01-20 01:21:00,44.0,26.1,29.61,SW,225,26.0,27.0,49,0.00,,---,0.00,VWS V14.01,2013-01-20 06:21:00,
2013-01-20 01:26:00,44.0,26.1,29.61,WSW,248,24.0,27.0,49,0.00,,---,0.00,VWS V14.01,2013-01-20 06:26:00,
2013-01-20 01:31:00,44.0,26.1,29.60,WSW,248,23.0,31.0,49,0.00,,---,0.00,VWS V14.01,2013-01-20 06:31:00,
2013-01-20 01:36:00,44.0,26.1,29.60,SW,225,20.0,31.0,49,0.00,,---,0.00,VWS V14.01,2013-01-20 06:36:00,
2013-01-20 01:41:00,44.0,26.6,29.59,SW,225,14.0,20.0,50,0.00,,---,0.00,VWS V14.01,2013-01-20 06:41:00,
2013-01-20 01:46:00,44.0,26.6,29.59,SW,225,15.0,26.0,50,0.00,,---,0.00,VWS V14.01,2013-01-20 06:46:00,
2013-01-20 01:52:00,44.0,27.0,29.59,SSW,202,19.0,37.0,51,0.00,,---,0.00,VWS V14.01,2013-01-20 06:52:00,
2013-01-20 01:57:00,44.0,27.0,29.59,SW,225,19.0,37.0,51,0.00,,---,0.00,VWS V14.01,2013-01-20 06:57:00,
2013-01-20 02:02:00,44.0,27.0,29.59,West,270,19.0,26.0,51,0.00,,---,0.00,VWS V14.01,2013-01-20 07:02:00,
2013-01-20 02:07:00,44.0,27.5,29.59,SSW,202,18.0,26.0,52,0.00,,---,0.00,VWS V14.01,2013-01-20 07:07:00,
2013-01-20 02:12:00,44.0,27.5,29.59,SW,225,14.0,35.0,52,0.00,,---,0.00,VWS V14.01,2013-01-20 07:12:00,
2013-01-20 02:17:00,44.0,27.5,29.58,SW,225,11.0,35.0,52,0.00,,---,0.00,VWS V14.01,2013-01-20 07:17:00,
2013-01-20 02:22:00,44.0,28.0,29.58,SSW,202,16.0,30.0,53,0.00,,---,0.00,VWS V14.01,2013-01-20 07:22:00,
2013-01-20 02:27:00,44.0,28.0,29.59,SW,225,20.0,30.0,53,0.00,,---,0.00,VWS V14.01,2013-01-20 07:27:00,
2013-01-20 02:32:00,44.0,28.0,29.58,WSW,248,22.0,32.0,53,0.00,,---,0.00,VWS V14.01,2013-01-20 07:32:00,
2013-01-20 02:37:00,44.0,28.4,29.58,SW,225,20.0,32.0,54,0.00,,---,0.00,VWS V14.01,2013-01-20 07:37:00,
2013-01-20 02:42:00,44.0,28.4,29.58,SW,225,19.0,25.0,54,0.00,,---,0.00,VWS V14.01,2013-01-20 07:42:00,
2013-01-20 02:47:00,44.0,28.4,29.58,West,270,18.0,30.0,54,0.00,,---,0.00,VWS V14.01,2013-01-20 07:47:00,
2013-01-20 02:52:00,44.0,28.4,29.58,WSW,248,21.0,30.0,54,0.00,,---,0.00,VWS V14.01,2013-01-20 07:52:00,
2013-01-20 02:58:00,44.0,28.9,29.57,WSW,248,20.0,30.0,55,0.00,,---,0.00,VWS V14.01,2013-01-20 07:58:00,
2013-01-20 03:03:00,44.0,28.9,29.57,WSW,248,16.0,28.0,55,0.00,,---,0.00,VWS V14.01,2013-01-20 08:03:00,
2013-01-20 03:08:00,44.0,28.9,29.57,WSW,248,16.0,30.0,55,0.00,,---,0.00,VWS V14.01,2013-01-20 08:08:00,
2013-01-20 03:13:00,44.0,29.3,29.57,SW,225,22.0,30.0,56,0.00,,---,0.00,VWS V14.01,2013-01-20 08:13:00,
2013-01-20 03:18:00,44.0,29.3,29.57,SW,225,11.0,31.0,56,0.00,,---,0.00,VWS V14.01,2013-01-20 08:18:00,
2013-01-20 03:23:00,44.0,29.8,29.57,SW,225,14.0,25.0,57,0.00,,---,0.00,VWS V14.01,2013-01-20 08:23:00,
2013-01-20 03:28:00,44.0,29.8,29.57,WSW,248,16.0,25.0,57,0.00,,---,0.00,VWS V14.01,2013-01-20 08:28:00,
2013-01-20 03:33:00,44.0,29.8,29.57,West,270,19.0,36.0,57,0.00,,---,0.00,VWS V14.01,2013-01-20 08:33:00,
2013-01-20 03:38:00,44.0,29.8,29.57,SSW,202,24.0,36.0,57,0.00,,---,0.00,VWS V14.01,2013-01-20 08:38:00,
2013-01-20 03:43:00,43.0,29.2,29.57,SW,225,18.0,34.0,58,0.00,,---,0.00,VWS V14.01,2013-01-20 08:43:00,
2013-01-20 03:48:00,43.0,29.2,29.57,West,270,18.0,37.0,58,0.00,,---,0.00,VWS V14.01,2013-01-20 08:48:00,
2013-01-20 03:54:00,43.0,29.2,29.57,WSW,248,19.0,40.0,58,0.00,,---,0.00,VWS V14.01,2013-01-20 08:54:00,
2013-01-20 03:59:00,43.0,29.2,29.56,WSW,248,22.0,40.0,58,0.00,,---,0.00,VWS V14.01,2013-01-20 08:59:00,
2013-01-20 04:04:00,43.0,29.2,29.56,SW,225,12.0,31.0,58,0.00,,---,0.00,VWS V14.01,2013-01-20 09:04:00,
2013-01-20 04:09:00,43.0,29.7,29.57,WSW,248,23.0,36.0,59,0.00,,---,0.00,VWS V14.01,2013-01-20 09:09:00,
2013-01-20 04:14:00,43.0,29.7,29.57,SW,225,15.0,39.0,59,0.00,,---,0.00,VWS V14.01,2013-01-20 09:14:00,
2013-01-20 04:19:00,43.0,29.7,29.56,WSW,248,24.0,39.0,59,0.00,,---,0.00,VWS V14.01,2013-01-20 09:19:00,
2013-01-20 04:24:00,43.0,29.7,29.56,WSW,248,12.0,32.0,59,0.00,,---,0.00,VWS V14.01,2013-01-20 09:24:00,
2013-01-20 04:29:00,43.0,30.1,29.57,West,270,20.0,32.0,60,0.00,,---,0.00,VWS V14.01,2013-01-20 09:29:00,
2013-01-20 04:34:00,43.0,30.1,29.56,WSW,248,19.0,37.0,60,0.00,,---,0.00,VWS V14.01,2013-01-20 09:34:00,
2013-01-20 04:39:00,43.0,30.5,29.57,WSW,248,22.0,37.0,61,0.00,,---,0.00,VWS V14.01,2013-01-20 09:39:00,
2013-01-20 04:45:00,42.0,29.1,29.56,SW,225,22.0,29.0,60,0.00,,---,0.00,VWS V14.01,2013-01-20 09:45:00,
2013-01-20 04:50:00,42.0,29.1,29.56,WSW,248,18.0,32.0,60,0.00,,---,0.00,VWS V14.01,2013-01-20 09:50:00,
2013-01-20 04:55:00,42.0,29.1,29.56,SW,225,27.0,32.0,60,0.00,,---,0.00,VWS V14.01,2013-01-20 09:55:00,
2013-01-20 05:00:00,42.0,28.7,29.56,SW,225,19.0,28.0,59,0.00,,---,0.00,VWS V14.01,2013-01-20 10:00:00,
2013-01-20 05:05:00,42.0,28.3,29.56,WSW,248,17.0,35.0,58,0.00,,---,0.00,VWS V14.01,2013-01-20 10:05:00,
2013-01-20 05:10:00,42.0,27.9,29.57,West,270,18.0,40.0,57,0.00,,---,0.00,VWS V14.01,2013-01-20 10:10:00,
2013-01-20 05:15:00,42.0,28.3,29.57,West,270,13.0,40.0,58,0.00,,---,0.00,VWS V14.01,2013-01-20 10:15:00,
2013-01-20 05:20:00,41.0,28.2,29.58,WNW,292,19.0,35.0,60,0.00,,---,0.00,VWS V14.01,2013-01-20 10:20:00,
2013-01-20 05:25:00,41.0,26.5,29.58,West,270,25.0,40.0,56,0.00,,---,0.00,VWS V14.01,2013-01-20 10:25:00,
2013-01-20 05:30:00,41.0,25.2,29.59,West,270,16.0,40.0,53,0.00,,---,0.00,VWS V14.01,2013-01-20 10:30:00,
2013-01-20 05:35:00,40.0,22.9,29.60,West,270,24.0,40.0,50,0.00,,---,0.00,VWS V14.01,2013-01-20 10:35:00,
2013-01-20 05:41:00,40.0,22.4,29.60,WNW,292,18.0,38.0,49,0.00,,---,0.00,VWS V14.01,2013-01-20 10:41:00,
2013-01-20 05:46:00,39.0,22.4,29.60,West,270,23.0,45.0,51,0.00,,---,0.00,VWS V14.01,2013-01-20 10:46:00,
2013-01-20 05:50:00,39.0,22.4,29.61,West,270,29.0,46.0,51,0.00,,---,0.00,VWS V14.01,2013-01-20 10:50:00,
2013-01-20 05:56:00,39.0,22.0,29.61,WNW,292,20.0,47.0,50,0.00,,---,0.00,VWS V14.01,2013-01-20 10:56:00,
2013-01-20 06:01:00,38.0,22.0,29.63,WNW,292,21.0,26.0,52,0.00,,---,0.00,VWS V14.01,2013-01-20 11:01:00,
2013-01-20 06:06:00,38.0,20.5,29.63,West,270,32.0,44.0,49,0.00,,---,0.00,VWS V14.01,2013-01-20 11:06:00,
2013-01-20 06:11:00,38.0,21.5,29.64,WNW,292,42.0,50.0,51,0.00,,---,0.00,VWS V14.01,2013-01-20 11:11:00,
2013-01-20 06:16:00,37.0,19.1,29.64,WNW,292,32.0,53.0,48,0.00,,---,0.00,VWS V14.01,2013-01-20 11:16:00,
2013-01-20 06:21:00,37.0,20.1,29.65,WSW,248,38.0,49.0,50,0.00,,---,0.00,VWS V14.01,2013-01-20 11:21:00,
2013-01-20 06:26:00,36.0,19.6,29.65,NW,315,10.0,49.0,51,0.00,,---,0.00,VWS V14.01,2013-01-20 11:26:00,
2013-01-20 06:31:00,36.0,20.5,29.66,WSW,248,14.0,49.0,53,0.00,,---,0.00,VWS V14.01,2013-01-20 11:31:00,
2013-01-20 06:36:00,36.0,21.4,29.66,West,270,11.0,49.0,55,0.00,,---,0.00,VWS V14.01,2013-01-20 11:36:00,
2013-01-20 06:42:00,35.0,22.1,29.67,West,270,36.0,47.0,59,0.00,,---,0.00,VWS V14.01,2013-01-20 11:42:00,
2013-01-20 06:47:00,34.0,22.4,29.69,WNW,292,33.0,47.0,62,0.00,,---,0.00,VWS V14.01,2013-01-20 11:47:00,
2013-01-20 06:52:00,33.0,21.8,29.70,NW,315,26.0,47.0,63,0.00,,---,0.00,VWS V14.01,2013-01-20 11:52:00,
2013-01-20 06:57:00,32.0,21.2,29.71,West,270,20.0,47.0,64,0.00,,---,0.00,VWS V14.01,2013-01-20 11:57:00,
2013-01-20 07:02:00,31.0,21.0,29.71,WNW,292,27.0,35.0,66,0.00,,---,0.00,VWS V14.01,2013-01-20 12:02:00,
2013-01-20 07:07:00,31.0,21.0,29.72,West,270,21.0,35.0,66,0.00,,---,0.00,VWS V14.01,2013-01-20 12:07:00,
2013-01-20 07:12:00,31.0,21.3,29.73,WNW,292,24.0,35.0,67,0.00,,---,0.00,VWS V14.01,2013-01-20 12:12:00,
2013-01-20 07:17:00,31.0,21.0,29.74,WNW,292,16.0,37.0,66,0.00,,---,0.00,VWS V14.01,2013-01-20 12:17:00,
2013-01-20 07:22:00,30.0,20.0,29.74,West,270,19.0,27.0,66,0.00,,---,0.00,VWS V14.01,2013-01-20 12:22:00,
2013-01-20 07:28:00,30.0,20.0,29.75,West,270,22.0,30.0,66,0.00,,---,0.00,VWS V14.01,2013-01-20 12:28:00,
2013-01-20 07:33:00,29.0,19.1,29.76,WNW,292,23.0,39.0,66,0.00,,---,0.00,VWS V14.01,2013-01-20 12:33:00,
2013-01-20 07:38:00,29.0,18.7,29.76,NE,45,3.0,39.0,65,0.00,,---,0.00,VWS V14.01,2013-01-20 12:38:00,
2013-01-20 07:43:00,28.0,17.4,29.77,West,270,36.0,45.0,64,0.00,,---,0.00,VWS V14.01,2013-01-20 12:43:00,
2013-01-20 07:48:00,28.0,17.8,29.78,West,270,21.0,45.0,65,0.00,,---,0.00,VWS V14.01,2013-01-20 12:48:00,
2013-01-20 07:53:00,27.0,16.8,29.78,SW,225,11.0,45.0,65,0.00,,---,0.00,VWS V14.01,2013-01-20 12:53:00,
2013-01-20 07:58:00,27.0,16.1,29.79,WSW,248,24.0,45.0,63,0.00,,---,0.00,VWS V14.01,2013-01-20 12:58:00,
2013-01-20 08:04:00,27.0,16.1,29.79,West,270,32.0,41.0,63,0.00,,---,0.00,VWS V14.01,2013-01-20 13:04:00,
2013-01-20 08:09:00,27.0,15.7,29.79,WNW,292,29.0,41.0,62,0.00,,---,0.00,VWS V14.01,2013-01-20 13:09:00,
2013-01-20 08:14:00,26.0,14.8,29.80,West,270,29.0,41.0,62,0.00,,---,0.00,VWS V14.01,2013-01-20 13:14:00,
2013-01-20 08:19:00,26.0,14.8,29.81,WNW,292,30.0,41.0,62,0.00,,---,0.00,VWS V14.01,2013-01-20 13:19:00,
2013-01-20 08:24:00,26.0,14.8,29.81,WNW,292,20.0,37.0,62,0.00,,---,0.00,VWS V14.01,2013-01-20 13:24:00,
2013-01-20 08:29:00,26.0,14.8,29.82,West,270,14.0,37.0,62,0.00,,---,0.00,VWS V14.01,2013-01-20 13:29:00,
2013-01-20 08:34:00,26.0,14.0,29.83,WNW,292,14.0,37.0,60,0.00,,---,0.00,VWS V14.01,2013-01-20 13:34:00,
2013-01-20 08:39:00,26.0,14.0,29.83,NW,315,19.0,37.0,60,0.00,,---,0.00,VWS V14.01,2013-01-20 13:39:00,
2013-01-20 08:44:00,25.0,13.1,29.84,West,270,17.0,36.0,60,0.00,,---,0.00,VWS V14.01,2013-01-20 13:44:00,
2013-01-20 08:49:00,25.0,13.1,29.84,WNW,292,18.0,36.0,60,0.00,,---,0.00,VWS V14.01,2013-01-20 13:49:00,
2013-01-20 08:55:00,25.0,13.1,29.85,West,270,17.0,40.0,60,0.00,,---,0.00,VWS V14.01,2013-01-20 13:55:00,
2013-01-20 09:00:00,25.0,13.1,29.85,WNW,292,31.0,31.0,60,0.00,,---,0.00,VWS V14.01,2013-01-20 14:00:00,
2013-01-20 09:05:00,25.0,13.8,29.86,WNW,292,14.0,31.0,62,0.00,,---,0.00,VWS V14.01,2013-01-20 14:05:00,
2013-01-20 09:10:00,25.0,13.8,29.86,West,270,13.0,34.0,62,0.00,,---,0.00,VWS V14.01,2013-01-20 14:10:00,
2013-01-20 09:15:00,25.0,13.1,29.87,NW,315,21.0,36.0,60,0.00,,---,0.00,VWS V14.01,2013-01-20 14:15:00,
2013-01-20 09:20:00,24.0,12.9,29.87,West,270,19.0,26.0,62,0.00,,---,0.00,VWS V14.01,2013-01-20 14:20:00,
2013-01-20 09:26:00,24.0,12.5,29.87,WNW,292,12.0,28.0,61,0.00,,---,0.00,VWS V14.01,2013-01-20 14:26:00,
2013-01-20 09:31:00,24.0,12.9,29.87,NW,315,19.0,31.0,62,0.00,,---,0.00,VWS V14.01,2013-01-20 14:31:00,
2013-01-20 09:36:00,24.0,14.0,29.88,West,270,10.0,31.0,65,0.00,,---,0.00,VWS V14.01,2013-01-20 14:36:00,
2013-01-20 09:41:00,24.0,14.0,29.89,WSW,248,22.0,32.0,65,0.00,,---,0.00,VWS V14.01,2013-01-20 14:41:00,
2013-01-20 09:46:00,24.0,13.6,29.89,West,270,14.0,32.0,64,0.00,,---,0.00,VWS V14.01,2013-01-20 14:46:00,
2013-01-20 09:51:00,24.0,13.6,29.89,WNW,292,18.0,32.0,64,0.00,,---,0.00,VWS V14.01,2013-01-20 14:51:00,
2013-01-20 09:56:00,24.0,14.0,29.89,WSW,248,11.0,32.0,65,0.00,,---,0.00,VWS V14.01,2013-01-20 14:56:00,
2013-01-20 10:01:00,23.0,13.0,29.90,WSW,248,23.0,35.0,65,0.00,,---,0.00,VWS V14.01,2013-01-20 15:01:00,
2013-01-20 10:06:00,23.0,13.4,29.90,WNW,292,18.0,35.0,66,0.00,,---,0.00,VWS V14.01,2013-01-20 15:06:00,
2013-01-20 10:12:00,23.0,14.4,29.91,West,270,11.0,35.0,69,0.00,,---,0.00,VWS V14.01,2013-01-20 15:12:00,
2013-01-20 10:17:00,23.0,15.3,29.91,WSW,248,14.0,35.0,72,0.00,,---,0.00,VWS V14.01,2013-01-20 15:17:00,
2013-01-20 10:22:00,23.0,16.3,29.91,WSW,248,16.0,27.0,75,0.00,,---,0.00,VWS V14.01,2013-01-20 15:22:00,
2013-01-20 10:27:00,23.0,15.3,29.92,WSW,248,19.0,34.0,72,0.00,,---,0.00,VWS V14.01,2013-01-20 15:27:00,
2013-01-20 10:32:00,23.0,15.3,29.91,WNW,292,11.0,34.0,72,0.00,,---,0.00,VWS V14.01,2013-01-20 15:32:00,
2013-01-20 10:37:00,23.0,15.3,29.92,West,270,13.0,34.0,72,0.00,,---,0.00,VWS V14.01,2013-01-20 15:37:00,
2013-01-20 10:42:00,23.0,16.0,29.93,West,270,18.0,27.0,74,0.00,,---,0.00,VWS V14.01,2013-01-20 15:42:00,
2013-01-20 10:47:00,22.0,15.0,29.92,West,270,21.0,29.0,74,0.00,,---,0.00,VWS V14.01,2013-01-20 15:47:00,
2013-01-20 10:53:00,22.0,15.9,29.93,West,270,13.0,29.0,77,0.00,,---,0.00,VWS V14.01,2013-01-20 15:53:00,
2013-01-20 10:58:00,22.0,15.0,29.93,West,270,21.0,29.0,74,0.00,,---,0.00,VWS V14.01,2013-01-20 15:58:00,
2013-01-20 11:03:00,22.0,15.0,29.93,West,270,21.0,27.0,74,0.00,,---,0.00,VWS V14.01,2013-01-20 16:03:00,
2013-01-20 11:08:00,22.0,14.7,29.93,West,270,10.0,28.0,73,0.00,,---,0.00,VWS V14.01,2013-01-20 16:08:00,
2013-01-20 11:13:00,22.0,14.4,29.93,West,270,17.0,28.0,72,0.00,,---,0.00,VWS V14.01,2013-01-20 16:13:00,
2013-01-20 11:18:00,22.0,16.8,29.93,West,270,21.0,36.0,80,0.00,,---,0.00,VWS V14.01,2013-01-20 16:18:00,
2013-01-20 11:23:00,21.0,16.7,29.94,West,270,16.0,19.0,83,0.00,,---,0.00,VWS V14.01,2013-01-20 16:23:00,
2013-01-20 11:28:00,21.0,16.1,29.94,WNW,292,18.0,31.0,81,0.00,,---,0.00,VWS V14.01,2013-01-20 16:28:00,
2013-01-20 11:33:00,21.0,16.7,29.94,WNW,292,15.0,31.0,83,0.00,,---,0.00,VWS V14.01,2013-01-20 16:33:00,
2013-01-20 11:38:00,21.0,16.9,29.94,West,270,14.0,31.0,84,0.00,,---,0.00,VWS V14.01,2013-01-20 16:38:00,
2013-01-20 11:43:00,21.0,18.3,29.95,NW,315,6.0,21.0,89,0.00,,---,0.00,VWS V14.01,2013-01-20 16:43:00,
2013-01-20 11:49:00,20.0,17.5,29.95,WNW,292,15.0,23.0,90,0.00,,---,0.00,VWS V14.01,2013-01-20 16:49:00,
2013-01-20 11:54:00,20.0,17.3,29.95,West,270,13.0,28.0,89,0.00,,---,0.00,VWS V14.01,2013-01-20 16:54:00,
2013-01-20 11:59:00,20.0,14.8,29.94,WNW,292,17.0,34.0,80,0.00,,---,0.00,VWS V14.01,2013-01-20 16:59:00,
2013-01-20 12:04:00,20.0,13.7,29.94,WNW,292,26.0,29.0,76,0.00,,---,0.00,VWS V14.01,2013-01-20 17:04:00,
2013-01-20 12:09:00,20.0,13.7,29.95,WNW,292,10.0,31.0,76,0.00,,---,0.00,VWS V14.01,2013-01-20 17:09:00,
2013-01-20 12:14:00,20.0,13.7,29.95,West,270,13.0,31.0,76,0.00,,---,0.00,VWS V14.01,2013-01-20 17:14:00,
2013-01-20 12:19:00,20.0,13.7,29.96,West,270,19.0,32.0,76,0.00,,---,0.00,VWS V14.01,2013-01-20 17:19:00,
2013-01-20 12:24:00,19.0,13.6,29.96,West,270,14.0,37.0,79,0.00,,---,0.00,VWS V14.01,2013-01-20 17:24:00,
2013-01-20 12:29:00,19.0,13.6,29.96,West,270,15.0,37.0,79,0.00,,---,0.00,VWS V14.01,2013-01-20 17:29:00,
2013-01-20 12:34:00,19.0,13.6,29.97,WNW,292,8.0,37.0,79,0.00,,---,0.00,VWS V14.01,2013-01-20 17:34:00,
2013-01-20 12:39:00,19.0,13.6,29.96,WNW,292,13.0,37.0,79,0.00,,---,0.00,VWS V14.01,2013-01-20 17:39:00,
2013-01-20 12:45:00,20.0,14.3,29.97,West,270,16.0,23.0,78,0.00,,---,0.00,VWS V14.01,2013-01-20 17:45:00,
2013-01-20 12:50:00,20.0,14.3,29.97,West,270,14.0,32.0,78,0.00,,---,0.00,VWS V14.01,2013-01-20 17:50:00,
2013-01-20 12:55:00,20.0,14.6,29.97,West,270,16.0,32.0,79,0.00,,---,0.00,VWS V14.01,2013-01-20 17:55:00,
2013-01-20 13:00:00,19.0,13.6,29.97,WNW,292,21.0,21.0,79,0.00,,---,0.00,VWS V14.01,2013-01-20 18:00:00,
2013-01-20 13:05:00,19.0,13.9,29.97,West,270,14.0,22.0,80,0.00,,---,0.00,VWS V14.01,2013-01-20 18:05:00,
2013-01-20 13:10:00,19.0,13.9,29.97,WNW,292,19.0,23.0,80,0.00,,---,0.00,VWS V14.01,2013-01-20 18:10:00,
2013-01-20 13:15:00,19.0,13.6,29.97,West,270,9.0,23.0,79,0.00,,---,0.00,VWS V14.01,2013-01-20 18:15:00,
2013-01-20 13:20:00,19.0,13.6,29.97,WNW,292,18.0,22.0,79,0.00,,---,0.00,VWS V14.01,2013-01-20 18:20:00,
2013-01-20 13:25:00,19.0,13.6,29.97,WNW,292,20.0,24.0,79,0.00,,---,0.00,VWS V14.01,2013-01-20 18:25:00,
2013-01-20 13:30:00,19.0,13.9,29.97,WNW,292,12.0,24.0,80,0.00,,---,0.00,VWS V14.01,2013-01-20 18:30:00,
2013-01-20 13:36:00,19.0,14.1,29.97,WNW,292,12.0,24.0,81,0.00,,---,0.00,VWS V14.01,2013-01-20 18:36:00,
2013-01-20 13:41:00,19.0,14.1,29.98,West,270,11.0,16.0,81,0.00,,---,0.00,VWS V14.01,2013-01-20 18:41:00,
2013-01-20 13:46:00,19.0,13.6,29.98,West,270,12.0,21.0,79,0.00,,---,0.00,VWS V14.01,2013-01-20 18:46:00,
2013-01-20 13:51:00,19.0,13.9,29.98,West,270,8.0,23.0,80,0.00,,---,0.00,VWS V14.01,2013-01-20 18:51:00,
2013-01-20 13:56:00,19.0,14.4,29.99,WNW,292,6.0,23.0,82,0.00,,---,0.00,VWS V14.01,2013-01-20 18:56:00,
2013-01-20 14:01:00,19.0,15.2,29.98,West,270,20.0,21.0,85,0.00,,---,0.00,VWS V14.01,2013-01-20 19:01:00,
2013-01-20 14:06:00,19.0,15.5,29.99,West,270,10.0,21.0,86,0.00,,---,0.00,VWS V14.01,2013-01-20 19:06:00,
2013-01-20 14:11:00,19.0,14.7,29.99,West,270,21.0,29.0,83,0.00,,---,0.00,VWS V14.01,2013-01-20 19:11:00,
2013-01-20 14:16:00,19.0,15.0,29.99,West,270,10.0,29.0,84,0.00,,---,0.00,VWS V14.01,2013-01-20 19:16:00,
2013-01-20 14:22:00,19.0,14.1,30.00,WNW,292,18.0,23.0,81,0.00,,---,0.00,VWS V14.01,2013-01-20 19:22:00,
2013-01-20 14:27:00,19.0,14.4,29.99,WSW,248,7.0,23.0,82,0.00,,---,0.00,VWS V14.01,2013-01-20 19:27:00,
2013-01-20 14:32:00,19.0,15.0,30.00,WNW,292,7.0,23.0,84,0.00,,---,0.00,VWS V14.01,2013-01-20 19:32:00,
2013-01-20 14:37:00,19.0,14.7,30.00,West,270,12.0,23.0,83,0.00,,---,0.00,VWS V14.01,2013-01-20 19:37:00,
2013-01-20 14:42:00,19.0,15.2,30.00,West,270,11.0,14.0,85,0.00,,---,0.00,VWS V14.01,2013-01-20 19:42:00,
2013-01-20 14:47:00,19.0,14.1,30.00,WNW,292,13.0,23.0,81,0.00,,---,0.00,VWS V14.01,2013-01-20 19:47:00,
2013-01-20 14:56:00,18.0,11.4,30.01,West,270,14.0,14.0,75,0.00,,---,0.00,VWS V14.01,2013-01-20 19:56:00,
2013-01-20 15:01:00,19.0,12.7,30.00,WNW,292,14.0,16.0,76,0.00,,---,0.00,VWS V14.01,2013-01-20 20:01:00,
2013-01-20 15:06:00,19.0,10.8,30.01,WNW,292,16.0,24.0,70,0.00,,---,0.00,VWS V14.01,2013-01-20 20:06:00,
2013-01-20 15:12:00,19.0,10.8,30.01,West,270,14.0,29.0,70,0.00,,---,0.00,VWS V14.01,2013-01-20 20:12:00,
2013-01-20 15:17:00,19.0,10.2,30.00,WSW,248,11.0,31.0,68,0.00,,---,0.00,VWS V14.01,2013-01-20 20:17:00,
2013-01-20 15:22:00,19.0,10.2,30.00,WNW,292,21.0,24.0,68,0.00,,---,0.00,VWS V14.01,2013-01-20 20:22:00,
2013-01-20 15:27:00,19.0,10.5,30.01,NW,315,5.0,24.0,69,0.00,,---,0.00,VWS V14.01,2013-01-20 20:27:00,
2013-01-20 15:32:00,19.0,11.2,30.01,WSW,248,8.0,24.0,71,0.00,,---,0.00,VWS V14.01,2013-01-20 20:32:00,
2013-01-20 15:37:00,19.0,11.5,30.01,WNW,292,11.0,24.0,72,0.00,,---,0.00,VWS V14.01,2013-01-20 20:37:00,
2013-01-20 15:42:00,19.0,11.5,30.00,WNW,292,11.0,18.0,72,0.00,,---,0.00,VWS V14.01,2013-01-20 20:42:00,
2013-01-20 15:47:00,19.0,12.4,30.00,West,270,10.0,18.0,75,0.00,,---,0.00,VWS V14.01,2013-01-20 20:47:00,
2013-01-20 15:52:00,19.0,13.3,30.00,West,270,11.0,18.0,78,0.00,,---,0.00,VWS V14.01,2013-01-20 20:52:00,
2013-01-20 15:57:00,19.0,13.9,30.01,WNW,292,7.0,18.0,80,0.00,,---,0.00,VWS V14.01,2013-01-20 20:57:00,
2013-01-20 16:03:00,19.0,13.6,30.01,West,270,9.0,16.0,79,0.00,,---,0.00,VWS V14.01,2013-01-20 21:03:00,
2013-01-20 16:08:00,19.0,13.3,30.01,NW,315,10.0,18.0,78,0.00,,---,0.00,VWS V14.01,2013-01-20 21:08:00,
2013-01-20 16:13:00,19.0,13.0,30.01,WNW,292,13.0,20.0,77,0.00,,---,0.00,VWS V14.01,2013-01-20 21:13:00,
2013-01-20 16:18:00,19.0,13.0,30.01,West,270,9.0,21.0,77,0.00,,---,0.00,VWS V14.01,2013-01-20 21:18:00,
2013-01-20 16:23:00,19.0,13.9,30.02,WNW,292,12.0,16.0,80,0.00,,---,0.00,VWS V14.01,2013-01-20 21:23:00,
2013-01-20 16:28:00,19.0,14.1,30.02,WSW,248,10.0,16.0,81,0.00,,---,0.00,VWS V14.01,2013-01-20 21:28:00,
2013-01-20 16:33:00,18.0,12.9,30.02,WNW,292,10.0,18.0,80,0.00,,---,0.00,VWS V14.01,2013-01-20 21:33:00,
2013-01-20 16:38:00,19.0,13.3,30.02,West,270,8.0,18.0,78,0.00,,---,0.00,VWS V14.01,2013-01-20 21:38:00,
2013-01-20 16:43:00,19.0,13.0,30.02,West,270,11.0,17.0,77,0.00,,---,0.00,VWS V14.01,2013-01-20 21:43:00,
2013-01-20 16:49:00,19.0,13.3,30.02,WNW,292,9.0,17.0,78,0.00,,---,0.00,VWS V14.01,2013-01-20 21:49:00,
2013-01-20 16:54:00,19.0,13.9,30.02,WNW,292,8.0,17.0,80,0.00,,---,0.00,VWS V14.01,2013-01-20 21:54:00,
2013-01-20 16:59:00,19.0,14.1,30.03,WNW,292,4.0,17.0,81,0.00,,---,0.00,VWS V14.01,2013-01-20 21:59:00,
2013-01-20 17:04:00,19.0,14.1,30.03,WNW,292,7.0,11.0,81,0.00,,---,0.00,VWS V14.01,2013-01-20 22:04:00,
2013-01-20 17:09:00,19.0,14.1,30.03,WSW,248,9.0,11.0,81,0.00,,---,0.00,VWS V14.01,2013-01-20 22:09:00,
2013-01-20 17:14:00,19.0,13.9,30.03,WSW,248,7.0,13.0,80,0.00,,---,0.00,VWS V14.01,2013-01-20 22:14:00,
2013-01-20 17:19:00,19.0,13.9,30.03,West,270,10.0,19.0,80,0.00,,---,0.00,VWS V14.01,2013-01-20 22:19:00,
2013-01-20 17:24:00,19.0,14.1,30.03,WSW,248,11.0,13.0,81,0.00,,---,0.00,VWS V14.01,2013-01-20 22:24:00,
2013-01-20 17:29:00,18.0,13.4,30.04,West,270,11.0,16.0,82,0.00,,---,0.00,VWS V14.01,2013-01-20 22:29:00,
2013-01-20 17:34:00,18.0,13.7,30.04,West,270,8.0,16.0,83,0.00,,---,0.00,VWS V14.01,2013-01-20 22:34:00,
2013-01-20 17:39:00,18.0,14.0,30.04,WNW,292,12.0,16.0,84,0.00,,---,0.00,VWS V14.01,2013-01-20 22:39:00,
2013-01-20 17:44:00,18.0,14.0,30.04,West,270,9.0,16.0,84,0.00,,---,0.00,VWS V14.01,2013-01-20 22:44:00,
2013-01-20 17:49:00,18.0,14.0,30.04,WNW,292,6.0,16.0,84,0.00,,---,0.00,VWS V14.01,2013-01-20 22:49:00,
2013-01-20 17:54:00,19.0,15.0,30.04,West,270,10.0,16.0,84,0.00,,---,0.00,VWS V14.01,2013-01-20 22:54:00,
2013-01-20 17:59:00,19.0,15.0,30.04,SW,225,6.0,16.0,84,0.00,,---,0.00,VWS V14.01,2013-01-20 22:59:00,
2013-01-20 18:05:00,18.0,14.0,30.04,WSW,248,5.0,16.0,84,0.00,,---,0.00,VWS V14.01,2013-01-20 23:05:00,
2013-01-20 18:09:00,18.0,14.3,30.05,WSW,248,10.0,16.0,85,0.00,,---,0.00,VWS V14.01,2013-01-20 23:09:00,
2013-01-20 18:15:00,18.0,14.8,30.05,West,270,10.0,16.0,87,0.00,,---,0.00,VWS V14.01,2013-01-20 23:15:00,
2013-01-20 18:20:00,18.0,15.3,30.05,WSW,248,8.0,8.0,89,0.00,,---,0.00,VWS V14.01,2013-01-20 23:20:00,
2013-01-20 18:25:00,18.0,15.6,30.05,West,270,9.0,13.0,90,0.00,,---,0.00,VWS V14.01,2013-01-20 23:25:00,
2013-01-20 18:30:00,18.0,15.6,30.05,SW,225,10.0,14.0,90,0.00,,---,0.00,VWS V14.01,2013-01-20 23:30:00,
2013-01-20 18:35:00,17.0,14.6,30.05,West,270,10.0,18.0,90,0.00,,---,0.00,VWS V14.01,2013-01-20 23:35:00,
2013-01-20 18:40:00,17.0,14.6,30.05,WSW,248,8.0,11.0,90,0.00,,---,0.00,VWS V14.01,2013-01-20 23:40:00,
2013-01-20 18:45:00,17.0,14.6,30.05,WSW,248,8.0,15.0,90,0.00,,---,0.00,VWS V14.01,2013-01-20 23:45:00,
2013-01-20 18:50:00,17.0,14.3,30.05,West,270,8.0,15.0,89,0.00,,---,0.00,VWS V14.01,2013-01-20 23:50:00,
2013-01-20 18:56:00,17.0,14.3,30.05,WSW,248,8.0,16.0,89,0.00,,---,0.00,VWS V14.01,2013-01-20 23:56:00,
2013-01-20 19:01:00,17.0,14.3,30.05,WSW,248,8.0,10.0,89,0.00,,---,0.00,VWS V14.01,2013-01-21 00:01:00,
2013-01-20 19:06:00,17.0,14.3,30.05,West,270,8.0,10.0,89,0.00,,---,0.00,VWS V14.01,2013-01-21 00:06:00,
2013-01-20 19:11:00,17.0,14.3,30.05,WNW,292,6.0,11.0,89,0.00,,---,0.00,VWS V14.01,2013-01-21 00:11:00,
2013-01-20 19:16:00,17.0,14.3,30.05,SW,225,10.0,14.0,89,0.00,,---,0.00,VWS V14.01,2013-01-21 00:16:00,
2013-01-20 19:21:00,17.0,14.1,30.05,SW,225,6.0,14.0,88,0.00,,---,0.00,VWS V14.01,2013-01-21 00:21:00,
2013-01-20 19:27:00,17.0,14.3,30.05,SW,225,8.0,14.0,89,0.00,,---,0.00,VWS V14.01,2013-01-21 00:27:00,
2013-01-20 19:32:00,17.0,14.3,30.05,WSW,248,8.0,14.0,89,0.00,,---,0.00,VWS V14.01,2013-01-21 00:32:00,
2013-01-20 19:37:00,17.0,14.3,30.05,West,270,8.0,14.0,89,0.00,,---,0.00,VWS V14.01,2013-01-21 00:37:00,
2013-01-20 19:42:00,17.0,14.1,30.06,WSW,248,10.0,12.0,88,0.00,,---,0.00,VWS V14.01,2013-01-21 00:42:00,
2013-01-20 19:47:00,17.0,14.1,30.05,WSW,248,8.0,13.0,88,0.00,,---,0.00,VWS V14.01,2013-01-21 00:47:00,
2013-01-20 19:52:00,17.0,14.1,30.06,WSW,248,12.0,13.0,88,0.00,,---,0.00,VWS V14.01,2013-01-21 00:52:00,
2013-01-20 19:58:00,17.0,14.3,30.06,West,270,5.0,13.0,89,0.00,,---,0.00,VWS V14.01,2013-01-21 00:58:00,
2013-01-20 20:03:00,17.0,14.3,30.06,WSW,248,4.0,9.0,89,0.00,,---,0.00,VWS V14.01,2013-01-21 01:03:00,
2013-01-20 20:08:00,17.0,14.3,30.06,West,270,6.0,11.0,89,0.00,,---,0.00,VWS V14.01,2013-01-21 01:08:00,
2013-01-20 20:13:00,17.0,14.3,30.06,WSW,248,9.0,11.0,89,0.00,,---,0.00,VWS V14.01,2013-01-21 01:13:00,
2013-01-20 20:18:00,17.0,14.3,30.06,WSW,248,7.0,11.0,89,0.00,,---,0.00,VWS V14.01,2013-01-21 01:18:00,
2013-01-20 20:23:00,17.0,14.3,30.05,WSW,248,9.0,10.0,89,0.00,,---,0.00,VWS V14.01,2013-01-21 01:23:00,
2013-01-20 20:28:00,17.0,14.3,30.05,WSW,248,8.0,11.0,89,0.00,,---,0.00,VWS V14.01,2013-01-21 01:28:00,
2013-01-20 20:33:00,17.0,14.3,30.05,WSW,248,8.0,11.0,89,0.00,,---,0.00,VWS V14.01,2013-01-21 01:33:00,
2013-01-20 20:38:00,17.0,14.3,30.05,WSW,248,6.0,11.0,89,0.00,,---,0.00,VWS V14.01,2013-01-21 01:38:00,
2013-01-20 20:43:00,17.0,14.3,30.05,WSW,248,3.0,10.0,89,0.00,,---,0.00,VWS V14.01,2013-01-21 01:43:00,
2013-01-20 20:48:00,17.0,14.3,30.06,SW,225,6.0,11.0,89,0.00,,---,0.00,VWS V14.01,2013-01-21 01:48:00,
2013-01-20 20:53:00,17.0,14.3,30.06,WSW,248,10.0,11.0,89,0.00,,---,0.00,VWS V14.01,2013-01-21 01:53:00,
2013-01-20 20:59:00,17.0,14.3,30.06,WSW,248,6.0,11.0,89,0.00,,---,0.00,VWS V14.01,2013-01-21 01:59:00,
2013-01-20 21:04:00,17.0,14.3,30.06,West,270,10.0,13.0,89,0.00,,---,0.00,VWS V14.01,2013-01-21 02:04:00,
2013-01-20 21:09:00,17.0,14.3,30.06,West,270,6.0,13.0,89,0.00,,---,0.00,VWS V14.01,2013-01-21 02:09:00,
2013-01-20 21:14:00,17.0,14.3,30.06,WSW,248,5.0,13.0,89,0.00,,---,0.00,VWS V14.01,2013-01-21 02:14:00,
2013-01-20 21:19:00,17.0,14.6,30.05,WNW,292,6.0,13.0,90,0.00,,---,0.00,VWS V14.01,2013-01-21 02:19:00,
2013-01-20 21:24:00,17.0,14.6,30.05,WSW,248,5.0,10.0,90,0.00,,---,0.00,VWS V14.01,2013-01-21 02:24:00,
2013-01-20 21:29:00,17.0,14.6,30.05,West,270,8.0,10.0,90,0.00,,---,0.00,VWS V14.01,2013-01-21 02:29:00,
2013-01-20 21:34:00,17.0,14.6,30.05,WSW,248,8.0,10.0,90,0.00,,---,0.00,VWS V14.01,2013-01-21 02:34:00,
2013-01-20 21:40:00,17.0,14.6,30.05,WSW,248,7.0,10.0,90,0.00,,---,0.00,VWS V14.01,2013-01-21 02:40:00,
2013-01-20 21:44:00,17.0,14.6,30.05,West,270,5.0,10.0,90,0.00,,---,0.00,VWS V14.01,2013-01-21 02:44:00,
2013-01-20 21:49:00,17.0,14.6,30.05,WSW,248,8.0,10.0,90,0.00,,---,0.00,VWS V14.01,2013-01-21 02:49:00,
2013-01-20 21:55:00,18.0,15.6,30.05,West,270,5.0,10.0,90,0.00,,---,0.00,VWS V14.01,2013-01-21 02:55:00,
2013-01-20 22:00:00,18.0,15.6,30.05,WSW,248,6.0,6.0,90,0.00,,---,0.00,VWS V14.01,2013-01-21 03:00:00,
2013-01-20 22:05:00,18.0,15.6,30.05,WSW,248,3.0,6.0,90,0.00,,---,0.00,VWS V14.01,2013-01-21 03:05:00,
2013-01-20 22:10:00,18.0,15.8,30.05,SW,225,3.0,6.0,91,0.00,,---,0.00,VWS V14.01,2013-01-21 03:10:00,
2013-01-20 22:15:00,18.0,15.8,30.05,WSW,248,3.0,7.0,91,0.00,,---,0.00,VWS V14.01,2013-01-21 03:15:00,
2013-01-20 22:20:00,18.0,15.8,30.05,WSW,248,3.0,6.0,91,0.00,,---,0.00,VWS V14.01,2013-01-21 03:20:00,
2013-01-20 22:25:00,18.0,15.8,30.05,West,270,5.0,7.0,91,0.00,,---,0.00,VWS V14.01,2013-01-21 03:25:00,
2013-01-20 22:30:00,18.0,15.8,30.05,West,270,5.0,7.0,91,0.00,,---,0.00,VWS V14.01,2013-01-21 03:30:00,
2013-01-20 22:35:00,18.0,15.8,30.05,West,270,4.0,7.0,91,0.00,,---,0.00,VWS V14.01,2013-01-21 03:35:00,
2013-01-20 22:41:00,18.0,15.8,30.04,WSW,248,3.0,5.0,91,0.00,,---,0.00,VWS V14.01,2013-01-21 03:41:00,
2013-01-20 22:46:00,18.0,15.8,30.04,WSW,248,3.0,6.0,91,0.00,,---,0.00,VWS V14.01,2013-01-21 03:46:00,
2013-01-20 22:51:00,18.0,15.8,30.04,West,270,4.0,8.0,91,0.00,,---,0.00,VWS V14.01,2013-01-21 03:51:00,
2013-01-20 22:56:00,18.0,15.8,30.04,West,270,3.0,8.0,91,0.00,,---,0.00,VWS V14.01,2013-01-21 03:56:00,
2013-01-20 23:01:00,18.0,15.8,30.04,WNW,292,6.0,8.0,91,0.00,,---,0.00,VWS V14.01,2013-01-21 04:01:00,
2013-01-20 23:06:00,18.0,15.8,30.04,WNW,292,3.0,8.0,91,0.00,,---,0.00,VWS V14.01,2013-01-21 04:06:00,
2013-01-20 23:11:00,18.0,15.8,30.04,WNW,292,3.0,8.0,91,0.00,,---,0.00,VWS V14.01,2013-01-21 04:11:00,
2013-01-20 23:16:00,18.0,15.8,30.04,WNW,292,5.0,8.0,91,0.00,,---,0.00,VWS V14.01,2013-01-21 04:16:00,
2013-01-20 23:21:00,18.0,15.8,30.04,WSW,248,3.0,6.0,91,0.00,,---,0.00,VWS V14.01,2013-01-21 04:21:00,
2013-01-20 23:27:00,18.0,15.8,30.04,WSW,248,3.0,6.0,91,0.00,,---,0.00,VWS V14.01,2013-01-21 04:27:00,
2013-01-20 23:32:00,18.0,15.8,30.04,WSW,248,4.0,6.0,91,0.00,,---,0.00,VWS V14.01,2013-01-21 04:32:00,
2013-01-20 23:37:00,18.0,15.8,30.04,WSW,248,3.0,6.0,91,0.00,,---,0.00,VWS V14.01,2013-01-21 04:37:00,
2013-01-20 23:42:00,18.0,15.8,30.03,WSW,248,5.0,6.0,91,0.00,,---,0.00,VWS V14.01,2013-01-21 04:42:00,
2013-01-20 23:47:00,18.0,15.8,30.04,West,270,4.0,6.0,91,0.00,,---,0.00,VWS V14.01,2013-01-21 04:47:00,
2013-01-20 23:52:00,18.0,15.8,30.03,West,270,3.0,6.0,91,0.00,,---,0.00,VWS V14.01,2013-01-21 04:52:00,
2013-01-20 23:57:00,18.0,15.8,30.03,West,270,5.0,6.0,91,0.00,,---,0.00,VWS V14.01,2013-01-21 04:57:00,